EN

Hourly Weather Nowe Bystre

Today, 16 May, Sunday

Time Temperature Precipitation Wind Pressure Humidity
00:00 +8°C° 0 mm 1 mps 682 mmHg 95%
01:00 +7°C° 0 mm 1 mps 682 mmHg 95%
02:00 +7°C° 0 mm 1 mps 681 mmHg 95%
03:00 +7°C° 0 mm 1 mps 681 mmHg 95%
04:00 +7°C° 0 mm 1 mps 681 mmHg 95%
05:00 +8°C° 0 mm 1 mps 681 mmHg 93%
06:00 +9°C° 0 mm 1 mps 681 mmHg 91%
07:00 +10°C° 0 mm 1 mps 681 mmHg 89%
08:00 +11°C° 0.7 mm 1 mps 681 mmHg 90%
09:00 +11°C° 0.7 mm 1 mps 681 mmHg 90%
10:00 +11°C° 0.7 mm 1 mps 681 mmHg 91%
11:00 +10°C° 1.5 mm 1 mps 681 mmHg 92%
12:00 +10°C° 1.5 mm 1 mps 681 mmHg 94%
13:00 +10°C° 1.5 mm 1 mps 681 mmHg 95%
14:00 +9°C° 1.1 mm 1 mps 681 mmHg 95%
15:00 +9°C° 1.1 mm 1 mps 681 mmHg 94%
16:00 +9°C° 1.1 mm 1 mps 681 mmHg 94%
17:00 +9°C° 0 mm 1 mps 681 mmHg 94%
18:00 +9°C° 0 mm 1 mps 681 mmHg 94%
19:00 +8°C° 0 mm 1 mps 681 mmHg 94%
20:00 +7°C° 0 mm 1 mps 681 mmHg 95%
21:00 +7°C° 0 mm 1 mps 681 mmHg 95%
22:00 +6°C° 0 mm 1 mps 681 mmHg 95%
23:00 +6°C° 0 mm 1 mps 681 mmHg 95%

Tomorrow, 17 May, Monday

Time Temperature Precipitation Wind Pressure Humidity
00:00 +6°C° 0 mm 1 mps 681 mmHg 94%
01:00 +5°C° 0 mm 1 mps 681 mmHg 94%
02:00 +5°C° 0 mm 1 mps 681 mmHg 93%
03:00 +5°C° 0 mm 1 mps 681 mmHg 92%
04:00 +5°C° 0 mm 1 mps 681 mmHg 91%
05:00 +7°C° 0 mm 1 mps 681 mmHg 87%
06:00 +8°C° 0 mm 1 mps 681 mmHg 83%
07:00 +10°C° 0 mm 1 mps 681 mmHg 79%
08:00 +10°C° 0 mm 2 mps 680 mmHg 72%
09:00 +13°C° 0 mm 2 mps 680 mmHg 66%
10:00 +14°C° 0 mm 2 mps 680 mmHg 59%
11:00 +13°C° 0.8 mm 2 mps 680 mmHg 69%
12:00 +10°C° 0.8 mm 2 mps 680 mmHg 80%
13:00 +10°C° 0.8 mm 1 mps 679 mmHg 90%
14:00 +10°C° 2.3 mm 1 mps 679 mmHg 93%
15:00 +9°C° 2.3 mm 1 mps 679 mmHg 95%
16:00 +8°C° 2.3 mm 1 mps 679 mmHg 97%
17:00 +8°C° 0.6 mm 1 mps 680 mmHg 97%
18:00 +7°C° 0.6 mm 2 mps 680 mmHg 96%
19:00 +6°C° 0.6 mm 2 mps 680 mmHg 96%
20:00 +6°C° 0 mm 2 mps 680 mmHg 96%
21:00 +6°C° 0 mm 2 mps 680 mmHg 96%
22:00 +5°C° 0 mm 2 mps 680 mmHg 96%
23:00 +5°C° 0 mm 2 mps 681 mmHg 95%

Day after tomorrow, 18 May, Tuesday

Time Temperature Precipitation Wind Pressure Humidity
00:00 +5°C° 0 mm 2 mps 681 mmHg 95%
01:00 +5°C° 0 mm 2 mps 681 mmHg 95%
02:00 +5°C° 0.2 mm 2 mps 681 mmHg 95%
03:00 +5°C° 0.2 mm 2 mps 681 mmHg 96%
04:00 +5°C° 0.2 mm 2 mps 681 mmHg 96%
05:00 +5°C° 0 mm 2 mps 682 mmHg 94%
06:00 +6°C° 0 mm 2 mps 682 mmHg 91%
07:00 +6°C° 0 mm 2 mps 682 mmHg 89%
08:00 +5°C° 0.1 mm 3 mps 682 mmHg 87%
09:00 +7°C° 0.1 mm 3 mps 683 mmHg 85%
10:00 +7°C° 0.1 mm 3 mps 683 mmHg 83%
11:00 +8°C° 0.2 mm 3 mps 683 mmHg 79%
12:00 +9°C° 0.2 mm 3 mps 683 mmHg 76%
13:00 +10°C° 0.2 mm 4 mps 683 mmHg 72%
14:00 +8°C° 0.2 mm 4 mps 683 mmHg 74%
15:00 +9°C° 0.2 mm 3 mps 683 mmHg 75%
16:00 +9°C° 0.2 mm 3 mps 683 mmHg 76%
17:00 +8°C° 0.1 mm 3 mps 683 mmHg 81%
18:00 +7°C° 0.1 mm 2 mps 683 mmHg 86%
19:00 +7°C° 0.1 mm 1 mps 683 mmHg 92%
20:00 +7°C° 0.2 mm 1 mps 684 mmHg 93%
21:00 +7°C° 0.2 mm 1 mps 684 mmHg 94%
22:00 +6°C° 0.2 mm 1 mps 684 mmHg 95%
23:00 +6°C° 0.1 mm 1 mps 685 mmHg 96%

19 May, Wednesday

Time Temperature Precipitation Wind Pressure Humidity
00:00 +6°C° 0.1 mm 1 mps 685 mmHg 96%
01:00 +6°C° 0.1 mm 1 mps 685 mmHg 96%
02:00 +6°C° 0.1 mm 1 mps 685 mmHg 96%
03:00 +6°C° 0.1 mm 1 mps 685 mmHg 96%
04:00 +6°C° 0.1 mm 1 mps 685 mmHg 96%
05:00 +6°C° 0.1 mm 1 mps 685 mmHg 95%
06:00 +7°C° 0.1 mm 1 mps 686 mmHg 94%
07:00 +7°C° 0.1 mm 1 mps 686 mmHg 93%
08:00 +8°C° 0.2 mm 1 mps 686 mmHg 90%
09:00 +7°C° 0.2 mm 2 mps 686 mmHg 87%
10:00 +8°C° 0.2 mm 2 mps 687 mmHg 85%
11:00 +8°C° 0.5 mm 2 mps 687 mmHg 84%
12:00 +9°C° 0.5 mm 2 mps 687 mmHg 82%
13:00 +9°C° 0.5 mm 2 mps 687 mmHg 81%
14:00 +9°C° 0.4 mm 2 mps 687 mmHg 83%
15:00 +8°C° 0.4 mm 2 mps 687 mmHg 84%
16:00 +8°C° 0.4 mm 2 mps 687 mmHg 86%
17:00 +8°C° 0.2 mm 1 mps 687 mmHg 88%
18:00 +7°C° 0.2 mm 1 mps 688 mmHg 91%
19:00 +6°C° 0.2 mm 1 mps 688 mmHg 94%
20:00 +6°C° 0 mm 1 mps 688 mmHg 94%
21:00 +5°C° 0 mm 1 mps 688 mmHg 95%
22:00 +4°C° 0 mm 1 mps 688 mmHg 95%
23:00 +4°C° 0 mm 1 mps 688 mmHg 95%

20 May, Thursday

Time Temperature Precipitation Wind Pressure Humidity
00:00 +4°C° 0 mm 1 mps 689 mmHg 95%
01:00 +3°C° 0 mm 1 mps 689 mmHg 94%
02:00 +3°C° 0 mm 1 mps 689 mmHg 95%
03:00 +3°C° 0 mm 1 mps 689 mmHg 95%
04:00 +3°C° 0 mm 1 mps 689 mmHg 95%
05:00 +5°C° 0 mm 1 mps 689 mmHg 91%
06:00 +6°C° 0 mm 1 mps 689 mmHg 87%
07:00 +8°C° 0 mm 1 mps 690 mmHg 83%
08:00 +9°C° 0 mm 2 mps 690 mmHg 73%
09:00 +10°C° 0 mm 2 mps 690 mmHg 63%
10:00 +12°C° 0 mm 2 mps 690 mmHg 53%
11:00 +12°C° 0 mm 3 mps 689 mmHg 51%
12:00 +13°C° 0 mm 3 mps 689 mmHg 49%
13:00 +13°C° 0 mm 3 mps 689 mmHg 47%
14:00 +13°C° 0 mm 3 mps 689 mmHg 48%
15:00 +13°C° 0 mm 3 mps 689 mmHg 50%
16:00 +13°C° 0 mm 3 mps 689 mmHg 51%
17:00 +12°C° 0 mm 2 mps 688 mmHg 61%
18:00 +9°C° 0 mm 2 mps 688 mmHg 70%
19:00 +9°C° 0 mm 1 mps 688 mmHg 79%
20:00 +8°C° 0 mm 1 mps 688 mmHg 81%
21:00 +7°C° 0 mm 2 mps 688 mmHg 82%
22:00 +6°C° 0 mm 2 mps 688 mmHg 83%
23:00 +6°C° 0 mm 2 mps 687 mmHg 83%

21 May, Friday

Time Temperature Precipitation Wind Pressure Humidity
00:00 +7°C° 0 mm 2 mps 687 mmHg 83%
01:00 +7°C° 0 mm 2 mps 687 mmHg 83%
02:00 +6°C° 0 mm 2 mps 686 mmHg 85%
03:00 +6°C° 0 mm 2 mps 686 mmHg 88%
04:00 +4°C° 0 mm 3 mps 686 mmHg 90%
05:00 +7°C° 0 mm 3 mps 686 mmHg 82%
06:00 +9°C° 0 mm 3 mps 686 mmHg 73%
07:00 +11°C° 0 mm 3 mps 686 mmHg 64%
08:00 +12°C° 0.1 mm 3 mps 686 mmHg 63%
09:00 +13°C° 0.1 mm 4 mps 687 mmHg 62%
10:00 +14°C° 0.1 mm 4 mps 687 mmHg 61%
11:00 +12°C° 1.2 mm 3 mps 687 mmHg 71%
12:00 +10°C° 1.2 mm 3 mps 687 mmHg 82%
13:00 +9°C° 1.2 mm 2 mps 687 mmHg 92%
14:00 +10°C° 0.1 mm 1 mps 687 mmHg 89%
15:00 +11°C° 0.1 mm 1 mps 687 mmHg 87%
16:00 +11°C° 0.1 mm 1 mps 687 mmHg 84%
17:00 +11°C° 0.3 mm 1 mps 686 mmHg 86%
18:00 +10°C° 0.3 mm 1 mps 686 mmHg 88%
19:00 +9°C° 0.3 mm 1 mps 686 mmHg 91%
20:00 +9°C° 0.8 mm 1 mps 686 mmHg 91%
21:00 +8°C° 0.8 mm 1 mps 686 mmHg 91%
22:00 +8°C° 0.8 mm 1 mps 686 mmHg 92%
23:00 +7°C° 1.5 mm 1 mps 686 mmHg 93%
Show more

We Need Your Consent

Meteoprog and our Service Providers may store and access personal data such as cookies, device identifiers or other similar technologies on your device and process such data to personalise content and ads, as well as provide social media features and to analyse the traffic.

  • Store and/or access information on your device

    Cookies, device identifiers or other information can be stored or accessed on your device for the purposes indicated above.

  • Personalised ads and content, ad and content measurement, audience insights, and products development

    Ads and content can be personalised based on a profile. More data can be added to better personalise ads and content. Ad and content performance can be measured. Insights about the audience who saw the ads and content can be derived. Such data can be used to develop or improve user’s experience, systems and software.

By clicking ‘I Agree’ you will allow the use of indicated cookies, device identifiers, web beacons or other similar technologies. Your settings can be changed in the browser on your device.

For certain purposes, legitimate interests may be relied on, rather than consent. You can read more about this in our Privacy and Cookie Policy.